Regional Weather Roundup
Issued by NWS

Home | Current Version | Previous Version | Text Only | Print | Product List | Glossary Off
Versions: 1 2 3 4 5 6 7 8 9 10 11 12 13 14 15 16 17 18 19 20 21 22 23 24 25 26 27 28 29 30 31 32 33 34 35 36 37 38 39 40 41 42 43 44 45 46 47 48 49 50

000
ASUS43 KLSX 290107
RWRMO

WEATHER SUMMARY FOR MISSOURI
NATIONAL WEATHER SERVICE SPRINGFIELD MO
800 PM CDT SAT MAY 28 2016

NOTE: "FAIR" INDICATES FEW OR NO CLOUDS BELOW 12,000 FEET WITH NO
       SIGNIFICANT WEATHER AND/OR OBSTRUCTIONS TO VISIBILITY.
       CURRENT SKY AND/OR WEATHER CONDITIONS ARE NOT AVAILABLE FOR
       CHILLICOTHE AND FARMINGTON.

MOZ001>031-035>038-043-044-053-054-290200-
...NORTHERN AND WESTERN MISSOURI...

CITY           SKY/WX    TMP DP  RH WIND       PRES   REMARKS
KANSAS CTY INT PTCLDY    72  59  63 SW7       29.94R
KANSAS C DTWN  CLEAR     75  58  55 SW8       29.93R
LEE`S SUMMIT   CLEAR     73  59  61 SW9       29.95R
ST JOSEPH      CLEAR     74  59  59 SW12      29.91R
CHILLICOTHE      N/A     74  60  61 VRB5      29.92R
KIRKSVILLE     LGT RAIN  73  59  61 SW8G16    29.92R

$$
MOZ066>068-077>081-088>096-101>105-290200-
...SOUTHWEST MISSOURI...

CITY           SKY/WX    TMP DP  RH WIND       PRES   REMARKS
SPRINGFIELD    CLEAR     76  62  62 W9        29.98R
JOPLIN         CLEAR     75  63  66 SW8       29.98R
BRANSON        PTCLDY    79  66  65 W8        30.00R

$$
MOZ032>034-039>042-045>050-055>058-069>072-290200-
...CENTRAL MISSOURI...

CITY           SKY/WX    TMP DP  RH WIND       PRES   REMARKS
COLUMBIA       PTCLDY    76  63  64 SW8       29.94R
JEFFERSON CITY CLEAR     79  60  52 W7        29.92R
ROLLA          MOCLDY    75  67  76 CALM      29.93S THUNDER
SEDALIA        CLEAR     75  62  64 SW6       29.96R
WHITEMAN AFB   CLEAR     74  62  65 W6        29.94R
WARRENSBURG    CLEAR     72  61  68 SW5       29.94R

$$
MOZ051-052-059>065-290200-
...EAST CENTRAL MISSOURI...

CITY           SKY/WX    TMP DP  RH WIND       PRES   REMARKS
ST LOUIS INTL  MOCLDY    81  66  60 S8        29.93R
SPIRIT OF STL  CLOUDY    79  68  69 S8        29.91S
ST CHARLES     PTCLDY    78  69  73 S6        29.91R

$$
MOZ072>076-082>087-097>100-106>115-290200-
...SOUTH CENTRAL AND SOUTHEAST MISSOURI...

CITY           SKY/WX    TMP DP  RH WIND       PRES   REMARKS
CAPE GIRARDEAU MOCLDY    76  69  79 S7        29.99S
FARMINGTON     CLOUDY    75  67  76 S10       30.00R
POPLAR BLUFF   CLOUDY    79  70  74 S8        29.99R
WEST PLAINS    CLEAR     75  65  70 CALM      30.02R

$$



USA.gov is the U.S. government's official web portal to all federal, state and local government web resources and services.